contact:dominique.lefevre@mio.osupytheas.fr, maurice.libes@osupytheas.fr, didier.mallarino@osupytheas.fr
Project:EMSO http://www.emso-fr.org/EMSO-France
Depth: 2436.0 m
Title:EMSO Ligure Ouest : Data MII capteur MICROCAT
DateTime_Computer,Latitude,Longitude,Temperature,Conductivity,Pressure,DateTime_Instrument
DateTime_Computer,Latitude,Longitude,degC,S m-1,dbar,DateTime_Instrument
2021-07-28T00:01:10Z,42.805,6.029,13.3015,4.60021,2470.567,2021-7-28T02:02:27Z
2021-07-28T00:04:13Z,42.805,6.029,13.3013,4.60021,2470.567,2021-7-28T02:05:30Z
2021-07-28T00:07:16Z,42.805,6.029,13.3014,4.60025,2470.53,2021-7-28T02:08:33Z
2021-07-28T00:10:19Z,42.805,6.029,13.3013,4.60024,2470.544,2021-7-28T02:11:36Z
2021-07-28T00:13:22Z,42.805,6.029,13.3013,4.60025,2470.553,2021-7-28T02:14:39Z
2021-07-28T00:16:25Z,42.805,6.029,13.3010,4.60014,2470.544,2021-7-28T02:17:42Z
2021-07-28T00:19:28Z,42.805,6.029,13.3003,4.60016,2470.53,2021-7-28T02:20:45Z
2021-07-28T00:22:31Z,42.805,6.029,13.3005,4.60021,2470.567,2021-7-28T02:23:48Z
2021-07-28T00:25:35Z,42.805,6.029,13.3023,4.60022,2470.591,2021-7-28T02:26:52Z
2021-07-28T00:28:38Z,42.805,6.029,13.3014,4.60024,2470.553,2021-7-28T02:29:55Z
2021-07-28T00:31:41Z,42.805,6.029,13.3013,4.60022,2470.567,2021-7-28T02:32:58Z
2021-07-28T00:34:44Z,42.805,6.029,13.3013,4.60021,2470.544,2021-7-28T02:36:01Z
2021-07-28T00:37:47Z,42.805,6.029,13.3009,4.60020,2470.53,2021-7-28T02:39:04Z
2021-07-28T00:40:50Z,42.805,6.029,13.3018,4.60021,2470.553,2021-7-28T02:42:07Z
2021-07-28T00:43:53Z,42.805,6.029,13.3015,4.60022,2470.52,2021-7-28T02:45:10Z
2021-07-28T00:46:56Z,42.805,6.029,13.3016,4.60015,2470.53,2021-7-28T02:48:13Z
2021-07-28T00:50:00Z,42.805,6.029,13.3013,4.60021,2470.544,2021-7-28T02:51:17Z
2021-07-28T00:53:03Z,42.805,6.029,13.3010,4.60019,2470.53,2021-7-28T02:54:20Z
2021-07-28T00:56:06Z,42.805,6.029,13.3012,4.60022,2470.52,2021-7-28T02:57:23Z
2021-07-28T00:59:09Z,42.805,6.029,13.3009,4.60021,2470.52,2021-7-28T03:00:26Z
2021-07-28T01:02:12Z,42.805,6.029,13.3020,4.60017,2470.53,2021-7-28T03:03:29Z
2021-07-28T01:05:15Z,42.805,6.029,13.3008,4.60023,2470.52,2021-7-28T03:06:32Z
2021-07-28T01:08:18Z,42.805,6.029,13.3018,4.60020,2470.507,2021-7-28T03:09:35Z
2021-07-28T01:11:21Z,42.805,6.029,13.3019,4.60019,2470.497,2021-7-28T03:12:38Z
2021-07-28T01:14:25Z,42.805,6.029,13.3009,4.60018,2470.507,2021-7-28T03:15:42Z
2021-07-28T01:17:28Z,42.805,6.029,13.3023,4.60026,2470.544,2021-7-28T03:18:45Z
2021-07-28T01:20:31Z,42.805,6.029,13.3015,4.60027,2470.507,2021-7-28T03:21:48Z
2021-07-28T01:23:34Z,42.805,6.029,13.3016,4.60026,2470.507,2021-7-28T03:24:51Z
2021-07-28T01:26:37Z,42.805,6.029,13.3008,4.60020,2470.507,2021-7-28T03:27:54Z
2021-07-28T01:29:40Z,42.805,6.029,13.3021,4.60021,2470.474,2021-7-28T03:30:57Z
2021-07-28T01:32:43Z,42.805,6.029,13.3015,4.60021,2470.483,2021-7-28T03:34:00Z
2021-07-28T01:35:46Z,42.805,6.029,13.3021,4.60024,2470.483,2021-7-28T03:37:03Z
2021-07-28T01:38:50Z,42.805,6.029,13.3008,4.60026,2470.507,2021-7-28T03:40:07Z
2021-07-28T01:41:53Z,42.805,6.029,13.3009,4.60016,2470.483,2021-7-28T03:43:10Z
2021-07-28T01:44:56Z,42.805,6.029,13.3011,4.60021,2470.507,2021-7-28T03:46:13Z
2021-07-28T01:47:59Z,42.805,6.029,13.3015,4.60017,2470.46,2021-7-28T03:49:16Z
2021-07-28T01:51:02Z,42.805,6.029,13.3019,4.60019,2470.437,2021-7-28T03:52:19Z
2021-07-28T01:54:05Z,42.805,6.029,13.3008,4.60019,2470.507,2021-7-28T03:55:22Z
2021-07-28T01:57:08Z,42.805,6.029,13.3011,4.60028,2470.497,2021-7-28T03:58:25Z
2021-07-28T02:00:11Z,42.805,6.029,13.3014,4.60026,2470.483,2021-7-28T04:01:28Z
2021-07-28T02:03:15Z,42.805,6.029,13.3016,4.60020,2470.483,2021-7-28T04:04:32Z
2021-07-28T02:06:18Z,42.805,6.029,13.3019,4.60014,2470.474,2021-7-28T04:07:35Z
2021-07-28T02:09:21Z,42.805,6.029,13.3013,4.60026,2470.497,2021-7-28T04:10:38Z
2021-07-28T02:12:24Z,42.805,6.029,13.3011,4.60016,2470.497,2021-7-28T04:13:41Z
2021-07-28T02:15:27Z,42.805,6.029,13.3016,4.60024,2470.45,2021-7-28T04:16:44Z
2021-07-28T02:18:30Z,42.805,6.029,13.3015,4.60014,2470.474,2021-7-28T04:19:47Z
2021-07-28T02:21:33Z,42.805,6.029,13.3012,4.60017,2470.47,2021-7-28T04:22:50Z
2021-07-28T02:24:36Z,42.805,6.029,13.3013,4.60021,2470.474,2021-7-28T04:25:53Z
2021-07-28T02:27:40Z,42.805,6.029,13.3009,4.60016,2470.46,2021-7-28T04:28:57Z
2021-07-28T02:30:43Z,42.805,6.029,13.3009,4.60021,2470.437,2021-7-28T04:32:00Z
2021-07-28T02:33:46Z,42.805,6.029,13.3010,4.60017,2470.437,2021-7-28T04:35:03Z
2021-07-28T02:36:49Z,42.805,6.029,13.3014,4.60010,2470.474,2021-7-28T04:38:06Z
2021-07-28T02:39:52Z,42.805,6.029,13.3016,4.60024,2470.497,2021-7-28T04:41:09Z
2021-07-28T02:42:55Z,42.805,6.029,13.3008,4.60023,2470.45,2021-7-28T04:44:12Z
2021-07-28T02:45:58Z,42.805,6.029,13.3013,4.60016,2470.474,2021-7-28T04:47:15Z
2021-07-28T02:49:01Z,42.805,6.029,13.3012,4.60011,2470.46,2021-7-28T04:50:18Z
2021-07-28T02:52:05Z,42.805,6.029,13.3006,4.60016,2470.46,2021-7-28T04:53:22Z
2021-07-28T02:55:08Z,42.805,6.029,13.3007,4.60019,2470.437,2021-7-28T04:56:25Z
2021-07-28T02:58:11Z,42.805,6.029,13.3020,4.60019,2470.45,2021-7-28T04:59:28Z
2021-07-28T03:01:14Z,42.805,6.029,13.3010,4.60016,2470.45,2021-7-28T05:02:31Z
2021-07-28T03:04:17Z,42.805,6.029,13.3018,4.60017,2470.427,2021-7-28T05:05:34Z
2021-07-28T03:07:20Z,42.805,6.029,13.3014,4.60020,2470.45,2021-7-28T05:08:37Z
2021-07-28T03:10:23Z,42.805,6.029,13.3015,4.60019,2470.413,2021-7-28T05:11:40Z
2021-07-28T03:13:26Z,42.805,6.029,13.3011,4.60022,2470.474,2021-7-28T05:14:43Z
2021-07-28T03:16:30Z,42.805,6.029,13.3008,4.60016,2470.46,2021-7-28T05:17:47Z
2021-07-28T03:19:33Z,42.805,6.029,13.3017,4.60016,2470.39,2021-7-28T05:20:50Z
2021-07-28T03:22:36Z,42.805,6.029,13.3015,4.60021,2470.413,2021-7-28T05:23:53Z
2021-07-28T03:25:39Z,42.805,6.029,13.3019,4.60015,2470.427,2021-7-28T05:26:56Z
2021-07-28T03:28:42Z,42.805,6.029,13.3015,4.60021,2470.474,2021-7-28T05:29:59Z
2021-07-28T03:31:45Z,42.805,6.029,13.3011,4.60021,2470.437,2021-7-28T05:33:02Z
2021-07-28T03:34:48Z,42.805,6.029,13.3005,4.60014,2470.427,2021-7-28T05:36:05Z
2021-07-28T03:37:51Z,42.805,6.029,13.3003,4.60011,2470.413,2021-7-28T05:39:08Z
2021-07-28T03:40:54Z,42.805,6.029,13.3003,4.60015,2470.413,2021-7-28T05:42:11Z
2021-07-28T03:43:58Z,42.805,6.029,13.3009,4.60014,2470.45,2021-7-28T05:45:15Z
2021-07-28T03:47:01Z,42.805,6.029,13.3011,4.60013,2470.39,2021-7-28T05:48:18Z
2021-07-28T03:50:04Z,42.805,6.029,13.3012,4.60013,2470.45,2021-7-28T05:51:21Z
2021-07-28T03:53:07Z,42.805,6.029,13.3004,4.60021,2470.39,2021-7-28T05:54:24Z
2021-07-28T03:56:10Z,42.805,6.029,13.3022,4.60019,2470.39,2021-7-28T05:57:27Z
2021-07-28T03:59:13Z,42.805,6.029,13.3009,4.60013,2470.39,2021-7-28T06:00:30Z
2021-07-28T04:02:16Z,42.805,6.029,13.3009,4.60019,2470.39,2021-7-28T06:03:33Z
2021-07-28T04:05:19Z,42.805,6.029,13.3011,4.60018,2470.427,2021-7-28T06:06:36Z
2021-07-28T04:08:23Z,42.805,6.029,13.3017,4.60019,2470.427,2021-7-28T06:09:40Z
2021-07-28T04:11:26Z,42.805,6.029,13.3015,4.60016,2470.39,2021-7-28T06:12:43Z
2021-07-28T04:14:29Z,42.805,6.029,13.3009,4.60014,2470.427,2021-7-28T06:15:46Z
2021-07-28T04:17:32Z,42.805,6.029,13.3004,4.60015,2470.39,2021-7-28T06:18:49Z
2021-07-28T04:20:35Z,42.805,6.029,13.3013,4.60021,2470.39,2021-7-28T06:21:52Z
2021-07-28T04:23:38Z,42.805,6.029,13.3015,4.60024,2470.413,2021-7-28T06:24:55Z
2021-07-28T04:26:41Z,42.805,6.029,13.3018,4.60016,2470.39,2021-7-28T06:27:58Z
2021-07-28T04:29:44Z,42.805,6.029,13.3010,4.60022,2470.413,2021-7-28T06:31:01Z
2021-07-28T04:32:48Z,42.805,6.029,13.3011,4.60015,2470.427,2021-7-28T06:34:05Z
2021-07-28T04:35:51Z,42.805,6.029,13.3009,4.60019,2470.39,2021-7-28T06:37:08Z
2021-07-28T04:38:54Z,42.805,6.029,13.3015,4.60015,2470.413,2021-7-28T06:40:11Z
2021-07-28T04:41:57Z,42.805,6.029,13.3016,4.60010,2470.427,2021-7-28T06:43:14Z
2021-07-28T04:45:00Z,42.805,6.029,13.3011,4.60019,2470.376,2021-7-28T06:46:17Z
2021-07-28T04:48:03Z,42.805,6.029,13.3014,4.60015,2470.427,2021-7-28T06:49:20Z
2021-07-28T04:51:06Z,42.805,6.029,13.3009,4.60018,2470.427,2021-7-28T06:52:23Z
2021-07-28T04:54:09Z,42.805,6.029,13.3007,4.60015,2470.413,2021-7-28T06:55:26Z
2021-07-28T04:57:13Z,42.805,6.029,13.3013,4.60024,2470.413,2021-7-28T06:58:30Z
2021-07-28T05:00:16Z,42.805,6.029,13.3004,4.60018,2470.366,2021-7-28T07:01:33Z
2021-07-28T05:03:19Z,42.805,6.029,13.3021,4.60020,2470.404,2021-7-28T07:04:36Z
2021-07-28T05:06:22Z,42.805,6.029,13.3014,4.60015,2470.366,2021-7-28T07:07:39Z
2021-07-28T05:09:25Z,42.805,6.029,13.3014,4.60020,2470.404,2021-7-28T07:10:42Z
2021-07-28T05:12:28Z,42.805,6.029,13.3013,4.60011,2470.366,2021-7-28T07:13:45Z
2021-07-28T05:15:31Z,42.805,6.029,13.3011,4.60019,2470.366,2021-7-28T07:16:48Z
2021-07-28T05:18:34Z,42.805,6.029,13.3017,4.60020,2470.366,2021-7-28T07:19:51Z
2021-07-28T05:21:38Z,42.805,6.029,13.3006,4.60019,2470.39,2021-7-28T07:22:55Z
2021-07-28T05:24:41Z,42.805,6.029,13.3012,4.60019,2470.366,2021-7-28T07:25:58Z
2021-07-28T05:27:44Z,42.805,6.029,13.3015,4.60024,2470.38,2021-7-28T07:29:01Z
2021-07-28T05:30:47Z,42.805,6.029,13.3011,4.60019,2470.39,2021-7-28T07:32:04Z
2021-07-28T05:33:50Z,42.805,6.029,13.3010,4.60025,2470.39,2021-7-28T07:35:07Z
2021-07-28T05:36:53Z,42.805,6.029,13.3011,4.60015,2470.413,2021-7-28T07:38:10Z
2021-07-28T05:39:56Z,42.805,6.029,13.3019,4.60019,2470.404,2021-7-28T07:41:13Z
2021-07-28T05:42:59Z,42.805,6.029,13.3012,4.60017,2470.427,2021-7-28T07:44:16Z
2021-07-28T05:46:03Z,42.805,6.029,13.3013,4.60016,2470.38,2021-7-28T07:47:20Z
2021-07-28T05:49:06Z,42.805,6.029,13.3008,4.60016,2470.404,2021-7-28T07:50:23Z
2021-07-28T05:52:09Z,42.805,6.029,13.3012,4.60016,2470.39,2021-7-28T07:53:26Z
2021-07-28T05:55:12Z,42.805,6.029,13.3015,4.60019,2470.38,2021-7-28T07:56:29Z
2021-07-28T05:58:15Z,42.805,6.029,13.3015,4.60019,2470.404,2021-7-28T07:59:32Z
2021-07-28T06:01:18Z,42.805,6.029,13.3018,4.60019,2470.413,2021-7-28T08:02:35Z
2021-07-28T06:04:21Z,42.805,6.029,13.3009,4.60013,2470.413,2021-7-28T08:05:38Z
2021-07-28T06:07:24Z,42.805,6.029,13.3012,4.60021,2470.38,2021-7-28T08:08:41Z
2021-07-28T06:10:27Z,42.805,6.029,13.3019,4.60021,2470.45,2021-7-28T08:11:44Z
2021-07-28T06:13:31Z,42.805,6.029,13.3008,4.60021,2470.366,2021-7-28T08:14:48Z
2021-07-28T06:16:34Z,42.805,6.029,13.3009,4.60014,2470.413,2021-7-28T08:17:51Z
2021-07-28T06:19:37Z,42.805,6.029,13.3010,4.60021,2470.39,2021-7-28T08:20:54Z
2021-07-28T06:22:40Z,42.805,6.029,13.3012,4.60020,2470.39,2021-7-28T08:23:57Z
2021-07-28T06:25:43Z,42.805,6.029,13.3012,4.60016,2470.404,2021-7-28T08:27:00Z
2021-07-28T06:28:46Z,42.805,6.029,13.3010,4.60017,2470.427,2021-7-28T08:30:03Z
2021-07-28T06:31:49Z,42.805,6.029,13.3011,4.60013,2470.437,2021-7-28T08:33:06Z
2021-07-28T06:34:52Z,42.805,6.029,13.3011,4.60016,2470.413,2021-7-28T08:36:09Z
2021-07-28T06:37:56Z,42.805,6.029,13.3009,4.60017,2470.45,2021-7-28T08:39:13Z
2021-07-28T06:40:59Z,42.805,6.029,13.3009,4.60021,2470.437,2021-7-28T08:42:16Z
2021-07-28T06:44:02Z,42.805,6.029,13.3016,4.60014,2470.427,2021-7-28T08:45:19Z
2021-07-28T06:47:05Z,42.805,6.029,13.3008,4.60024,2470.404,2021-7-28T08:48:22Z
2021-07-28T06:50:08Z,42.805,6.029,13.3014,4.60031,2470.437,2021-7-28T08:51:25Z
2021-07-28T06:53:11Z,42.805,6.029,13.3016,4.60024,2470.427,2021-7-28T08:54:28Z
2021-07-28T06:56:14Z,42.805,6.029,13.3018,4.60014,2470.39,2021-7-28T08:57:31Z
2021-07-28T06:59:17Z,42.805,6.029,13.3009,4.60022,2470.427,2021-7-28T09:00:34Z
2021-07-28T07:02:21Z,42.805,6.029,13.3011,4.60016,2470.427,2021-7-28T09:03:38Z
2021-07-28T07:05:24Z,42.805,6.029,13.3011,4.60021,2470.413,2021-7-28T09:06:41Z
2021-07-28T07:08:27Z,42.805,6.029,13.3011,4.60019,2470.437,2021-7-28T09:09:44Z
2021-07-28T07:11:30Z,42.805,6.029,13.3011,4.60016,2470.45,2021-7-28T09:12:47Z
2021-07-28T07:14:33Z,42.805,6.029,13.3004,4.60019,2470.413,2021-7-28T09:15:50Z
2021-07-28T07:17:36Z,42.805,6.029,13.3009,4.60017,2470.46,2021-7-28T09:18:53Z
2021-07-28T07:20:39Z,42.805,6.029,13.3015,4.60016,2470.404,2021-7-28T09:21:56Z
2021-07-28T07:23:42Z,42.805,6.029,13.3009,4.60021,2470.46,2021-7-28T09:24:59Z
2021-07-28T07:26:46Z,42.805,6.029,13.3015,4.60019,2470.413,2021-7-28T09:28:03Z
2021-07-28T07:29:49Z,42.805,6.029,13.3012,4.60021,2470.437,2021-7-28T09:31:06Z
2021-07-28T07:32:52Z,42.805,6.029,13.3012,4.60019,2470.45,2021-7-28T09:34:09Z
2021-07-28T07:35:55Z,42.805,6.029,13.3011,4.60016,2470.46,2021-7-28T09:37:12Z
2021-07-28T07:38:58Z,42.805,6.029,13.3016,4.60020,2470.427,2021-7-28T09:40:15Z
2021-07-28T07:42:01Z,42.805,6.029,13.3015,4.60019,2470.474,2021-7-28T09:43:18Z
2021-07-28T07:45:04Z,42.805,6.029,13.3015,4.60021,2470.46,2021-7-28T09:46:21Z
2021-07-28T07:48:07Z,42.805,6.029,13.3007,4.60015,2470.483,2021-7-28T09:49:24Z
2021-07-28T07:51:11Z,42.805,6.029,13.3004,4.60019,2470.474,2021-7-28T09:52:28Z
2021-07-28T07:54:14Z,42.805,6.029,13.3013,4.60026,2470.46,2021-7-28T09:55:31Z
2021-07-28T07:57:17Z,42.805,6.029,13.3014,4.60028,2470.46,2021-7-28T09:58:34Z
2021-07-28T08:00:20Z,42.805,6.029,13.3020,4.60026,2470.45,2021-7-28T10:01:37Z
2021-07-28T08:03:24Z,42.805,6.029,13.3019,4.60021,2470.483,2021-7-28T10:04:41Z
2021-07-28T08:06:27Z,42.805,6.029,13.3020,4.60021,2470.474,2021-7-28T10:07:44Z
2021-07-28T08:09:30Z,42.805,6.029,13.3014,4.60019,2470.483,2021-7-28T10:10:47Z
2021-07-28T08:12:33Z,42.805,6.029,13.3015,4.60020,2470.483,2021-7-28T10:13:50Z
2021-07-28T08:15:36Z,42.805,6.029,13.3017,4.60016,2470.474,2021-7-28T10:16:53Z
2021-07-28T08:18:39Z,42.805,6.029,13.3023,4.60017,2470.497,2021-7-28T10:19:56Z
2021-07-28T08:21:42Z,42.805,6.029,13.3025,4.60021,2470.474,2021-7-28T10:23:00Z
2021-07-28T08:24:46Z,42.805,6.029,13.3014,4.60023,2470.474,2021-7-28T10:26:03Z
2021-07-28T08:27:49Z,42.805,6.029,13.3019,4.60020,2470.437,2021-7-28T10:29:06Z
2021-07-28T08:30:52Z,42.805,6.029,13.3006,4.60029,2470.474,2021-7-28T10:32:09Z
2021-07-28T08:33:55Z,42.805,6.029,13.3016,4.60023,2470.497,2021-7-28T10:35:12Z
2021-07-28T08:36:58Z,42.805,6.029,13.3023,4.60024,2470.437,2021-7-28T10:38:15Z
2021-07-28T08:40:01Z,42.805,6.029,13.3021,4.60022,2470.483,2021-7-28T10:41:18Z
2021-07-28T08:43:04Z,42.805,6.029,13.3018,4.60029,2470.46,2021-7-28T10:44:21Z
2021-07-28T08:46:08Z,42.805,6.029,13.3021,4.60019,2470.497,2021-7-28T10:47:25Z
2021-07-28T08:49:11Z,42.805,6.029,13.3014,4.60017,2470.483,2021-7-28T10:50:28Z
2021-07-28T08:52:14Z,42.805,6.029,13.3012,4.60016,2470.507,2021-7-28T10:53:31Z
2021-07-28T08:55:17Z,42.805,6.029,13.3021,4.60017,2470.46,2021-7-28T10:56:34Z
2021-07-28T08:58:20Z,42.805,6.029,13.3009,4.60019,2470.46,2021-7-28T10:59:37Z
2021-07-28T09:01:23Z,42.805,6.029,13.3021,4.60020,2470.474,2021-7-28T11:02:40Z
2021-07-28T09:04:26Z,42.805,6.029,13.3011,4.60024,2470.507,2021-7-28T11:05:43Z
2021-07-28T09:07:29Z,42.805,6.029,13.3015,4.60021,2470.483,2021-7-28T11:08:46Z
2021-07-28T09:10:33Z,42.805,6.029,13.3009,4.60022,2470.46,2021-7-28T11:11:50Z
2021-07-28T09:13:36Z,42.805,6.029,13.3017,4.60026,2470.483,2021-7-28T11:14:53Z
2021-07-28T09:16:39Z,42.805,6.029,13.3010,4.60029,2470.483,2021-7-28T11:17:56Z
2021-07-28T09:19:42Z,42.805,6.029,13.3023,4.60027,2470.483,2021-7-28T11:20:59Z
2021-07-28T09:22:45Z,42.805,6.029,13.3020,4.60030,2470.483,2021-7-28T11:24:02Z
2021-07-28T09:25:48Z,42.805,6.029,13.3026,4.60026,2470.507,2021-7-28T11:27:05Z
2021-07-28T09:28:51Z,42.805,6.029,13.3022,4.60036,2470.483,2021-7-28T11:30:08Z
2021-07-28T09:31:54Z,42.805,6.029,13.3023,4.60033,2470.483,2021-7-28T11:33:11Z
2021-07-28T09:34:58Z,42.805,6.029,13.3021,4.60023,2470.497,2021-7-28T11:36:15Z
2021-07-28T09:38:01Z,42.805,6.029,13.3022,4.60026,2470.483,2021-7-28T11:39:18Z
2021-07-28T09:41:04Z,42.805,6.029,13.3024,4.60021,2470.53,2021-7-28T11:42:21Z
2021-07-28T09:44:07Z,42.805,6.029,13.3019,4.60031,2470.497,2021-7-28T11:45:24Z
2021-07-28T09:47:10Z,42.805,6.029,13.3018,4.60027,2470.46,2021-7-28T11:48:27Z
2021-07-28T09:50:13Z,42.805,6.029,13.3014,4.60023,2470.46,2021-7-28T11:51:30Z
2021-07-28T09:53:16Z,42.805,6.029,13.3010,4.60016,2470.507,2021-7-28T11:54:33Z
2021-07-28T09:56:19Z,42.805,6.029,13.3019,4.60031,2470.46,2021-7-28T11:57:37Z
2021-07-28T09:59:23Z,42.805,6.029,13.3014,4.60028,2470.52,2021-7-28T12:00:40Z
2021-07-28T10:02:26Z,42.805,6.029,13.3024,4.60014,2470.46,2021-7-28T12:03:43Z
2021-07-28T10:05:29Z,42.805,6.029,13.3021,4.60020,2470.474,2021-7-28T12:06:46Z
2021-07-28T10:08:32Z,42.805,6.029,13.3021,4.60031,2470.52,2021-7-28T12:09:49Z
2021-07-28T10:11:35Z,42.805,6.029,13.3021,4.60028,2470.483,2021-7-28T12:12:52Z
2021-07-28T10:14:38Z,42.805,6.029,13.3022,4.60023,2470.497,2021-7-28T12:15:55Z
2021-07-28T10:17:41Z,42.805,6.029,13.3023,4.60027,2470.483,2021-7-28T12:18:58Z
2021-07-28T10:20:44Z,42.805,6.029,13.3020,4.60027,2470.474,2021-7-28T12:22:02Z
2021-07-28T10:23:48Z,42.805,6.029,13.3017,4.60029,2470.497,2021-7-28T12:25:05Z
2021-07-28T10:26:51Z,42.805,6.029,13.3020,4.60026,2470.474,2021-7-28T12:28:08Z
2021-07-28T10:29:54Z,42.805,6.029,13.3025,4.60026,2470.507,2021-7-28T12:31:11Z
2021-07-28T10:32:57Z,42.805,6.029,13.3015,4.60025,2470.46,2021-7-28T12:34:14Z
2021-07-28T10:36:00Z,42.805,6.029,13.3019,4.60028,2470.507,2021-7-28T12:37:17Z
2021-07-28T10:39:03Z,42.805,6.029,13.3025,4.60021,2470.474,2021-7-28T12:40:20Z
2021-07-28T10:42:06Z,42.805,6.029,13.3007,4.60018,2470.483,2021-7-28T12:43:23Z
2021-07-28T10:45:10Z,42.805,6.029,13.3021,4.60024,2470.46,2021-7-28T12:46:27Z
2021-07-28T10:48:13Z,42.805,6.029,13.3020,4.60025,2470.46,2021-7-28T12:49:30Z
2021-07-28T10:51:16Z,42.805,6.029,13.3022,4.60021,2470.46,2021-7-28T12:52:33Z
2021-07-28T10:54:19Z,42.805,6.029,13.3019,4.60023,2470.474,2021-7-28T12:55:36Z
2021-07-28T10:57:22Z,42.805,6.029,13.3019,4.60033,2470.483,2021-7-28T12:58:39Z
2021-07-28T11:00:25Z,42.805,6.029,13.3010,4.60016,2470.46,2021-7-28T13:01:42Z
2021-07-28T11:03:28Z,42.805,6.029,13.3014,4.60018,2470.497,2021-7-28T13:04:45Z
2021-07-28T11:06:31Z,42.805,6.029,13.3013,4.60019,2470.474,2021-7-28T13:07:48Z
2021-07-28T11:09:35Z,42.805,6.029,13.3019,4.60024,2470.437,2021-7-28T13:10:52Z
2021-07-28T11:12:38Z,42.805,6.029,13.3019,4.60023,2470.45,2021-7-28T13:13:55Z
2021-07-28T11:15:41Z,42.805,6.029,13.3018,4.60021,2470.46,2021-7-28T13:16:58Z
2021-07-28T11:18:44Z,42.805,6.029,13.3011,4.60022,2470.46,2021-7-28T13:20:01Z
2021-07-28T11:21:47Z,42.805,6.029,13.3014,4.60021,2470.483,2021-7-28T13:23:04Z
2021-07-28T11:24:50Z,42.805,6.029,13.3020,4.60021,2470.46,2021-7-28T13:26:07Z
2021-07-28T11:27:53Z,42.805,6.029,13.3021,4.60035,2470.474,2021-7-28T13:29:10Z
2021-07-28T11:30:57Z,42.805,6.029,13.3025,4.60031,2470.46,2021-7-28T13:32:14Z
2021-07-28T11:34:00Z,42.805,6.029,13.3009,4.60035,2470.45,2021-7-28T13:35:17Z
2021-07-28T11:37:03Z,42.805,6.029,13.3015,4.60021,2470.46,2021-7-28T13:38:20Z
2021-07-28T11:40:06Z,42.805,6.029,13.3009,4.60019,2470.437,2021-7-28T13:41:23Z
2021-07-28T11:43:09Z,42.805,6.029,13.3023,4.60026,2470.483,2021-7-28T13:44:26Z
2021-07-28T11:46:12Z,42.805,6.029,13.3019,4.60017,2470.483,2021-7-28T13:47:29Z
2021-07-28T11:49:15Z,42.805,6.029,13.3014,4.60019,2470.427,2021-7-28T13:50:32Z
2021-07-28T11:52:18Z,42.805,6.029,13.3019,4.60026,2470.437,2021-7-28T13:53:35Z
2021-07-28T11:55:22Z,42.805,6.029,13.3013,4.60027,2470.437,2021-7-28T13:56:39Z
2021-07-28T11:58:25Z,42.805,6.029,13.3016,4.60023,2470.45,2021-7-28T13:59:42Z
2021-07-28T12:01:28Z,42.805,6.029,13.3020,4.60033,2470.437,2021-7-28T14:02:45Z
2021-07-28T12:04:31Z,42.805,6.029,13.3014,4.60043,2470.46,2021-7-28T14:05:48Z
2021-07-28T12:07:34Z,42.805,6.029,13.3014,4.60021,2470.437,2021-7-28T14:08:51Z
2021-07-28T12:10:37Z,42.805,6.029,13.3020,4.60021,2470.474,2021-7-28T14:11:54Z
2021-07-28T12:13:40Z,42.805,6.029,13.3011,4.60015,2470.437,2021-7-28T14:14:57Z
2021-07-28T12:16:43Z,42.805,6.029,13.3020,4.60025,2470.413,2021-7-28T14:18:00Z
2021-07-28T12:19:47Z,42.805,6.029,13.3007,4.60021,2470.437,2021-7-28T14:21:04Z
2021-07-28T12:22:50Z,42.805,6.029,13.3013,4.60020,2470.474,2021-7-28T14:24:07Z
2021-07-28T12:25:53Z,42.805,6.029,13.3009,4.60035,2470.413,2021-7-28T14:27:10Z
2021-07-28T12:28:56Z,42.805,6.029,13.3011,4.60017,2470.437,2021-7-28T14:30:13Z
2021-07-28T12:31:59Z,42.805,6.029,13.3019,4.60032,2470.404,2021-7-28T14:33:16Z
2021-07-28T12:35:02Z,42.805,6.029,13.3016,4.60024,2470.437,2021-7-28T14:36:19Z
2021-07-28T12:38:05Z,42.805,6.029,13.3011,4.60021,2470.413,2021-7-28T14:39:22Z
2021-07-28T12:41:08Z,42.805,6.029,13.3014,4.60020,2470.413,2021-7-28T14:42:25Z
2021-07-28T12:44:12Z,42.805,6.029,13.3024,4.60021,2470.427,2021-7-28T14:45:29Z
2021-07-28T12:47:15Z,42.805,6.029,13.3011,4.60013,2470.427,2021-7-28T14:48:32Z
2021-07-28T12:50:18Z,42.805,6.029,13.3013,4.60019,2470.404,2021-7-28T14:51:35Z
2021-07-28T12:53:21Z,42.805,6.029,13.3012,4.60024,2470.404,2021-7-28T14:54:38Z
2021-07-28T12:56:24Z,42.805,6.029,13.3009,4.60014,2470.413,2021-7-28T14:57:41Z
2021-07-28T12:59:27Z,42.805,6.029,13.3014,4.60017,2470.404,2021-7-28T15:00:44Z
2021-07-28T13:02:30Z,42.805,6.029,13.3011,4.60024,2470.413,2021-7-28T15:03:47Z
2021-07-28T13:05:33Z,42.805,6.029,13.3013,4.60021,2470.427,2021-7-28T15:06:51Z
2021-07-28T13:08:37Z,42.805,6.029,13.3010,4.60023,2470.413,2021-7-28T15:09:54Z
2021-07-28T13:11:40Z,42.805,6.029,13.3013,4.60022,2470.45,2021-7-28T15:12:57Z
2021-07-28T13:14:43Z,42.805,6.029,13.3006,4.60018,2470.39,2021-7-28T15:16:00Z
2021-07-28T13:17:46Z,42.805,6.029,13.3008,4.60031,2470.366,2021-7-28T15:19:03Z
2021-07-28T13:20:49Z,42.805,6.029,13.3015,4.60024,2470.45,2021-7-28T15:22:06Z
2021-07-28T13:23:52Z,42.805,6.029,13.3015,4.60019,2470.39,2021-7-28T15:25:09Z
2021-07-28T13:26:55Z,42.805,6.029,13.3015,4.60019,2470.427,2021-7-28T15:28:12Z
2021-07-28T13:29:59Z,42.805,6.029,13.3015,4.60016,2470.404,2021-7-28T15:31:16Z
2021-07-28T13:33:02Z,42.805,6.029,13.3015,4.60016,2470.427,2021-7-28T15:34:19Z
2021-07-28T13:36:05Z,42.805,6.029,13.3009,4.60021,2470.437,2021-7-28T15:37:22Z
2021-07-28T13:39:08Z,42.805,6.029,13.3014,4.60017,2470.404,2021-7-28T15:40:25Z
2021-07-28T13:42:11Z,42.805,6.029,13.3009,4.60029,2470.39,2021-7-28T15:43:28Z
2021-07-28T13:45:14Z,42.805,6.029,13.3018,4.60025,2470.404,2021-7-28T15:46:31Z
2021-07-28T13:48:17Z,42.805,6.029,13.3014,4.60019,2470.39,2021-7-28T15:49:34Z
2021-07-28T13:51:20Z,42.805,6.029,13.3011,4.60017,2470.413,2021-7-28T15:52:37Z
2021-07-28T13:54:24Z,42.805,6.029,13.3019,4.60017,2470.427,2021-7-28T15:55:41Z
2021-07-28T13:57:27Z,42.805,6.029,13.3011,4.60017,2470.39,2021-7-28T15:58:44Z
2021-07-28T14:00:30Z,42.805,6.029,13.3016,4.60020,2470.366,2021-7-28T16:01:47Z
2021-07-28T14:03:33Z,42.805,6.029,13.3015,4.60018,2470.366,2021-7-28T16:04:50Z
2021-07-28T14:06:36Z,42.805,6.029,13.3019,4.60020,2470.404,2021-7-28T16:07:53Z
2021-07-28T14:09:39Z,42.805,6.029,13.3017,4.60018,2470.343,2021-7-28T16:10:56Z
2021-07-28T14:12:42Z,42.805,6.029,13.3009,4.60024,2470.38,2021-7-28T16:13:59Z
2021-07-28T14:15:45Z,42.805,6.029,13.3010,4.60020,2470.413,2021-7-28T16:17:02Z
2021-07-28T14:18:49Z,42.805,6.029,13.3014,4.60020,2470.38,2021-7-28T16:20:06Z
2021-07-28T14:21:52Z,42.805,6.029,13.3010,4.60018,2470.343,2021-7-28T16:23:09Z
2021-07-28T14:24:55Z,42.805,6.029,13.3011,4.60039,2470.413,2021-7-28T16:26:12Z
2021-07-28T14:27:58Z,42.805,6.029,13.3015,4.60019,2470.366,2021-7-28T16:29:15Z
2021-07-28T14:31:01Z,42.805,6.029,13.3011,4.60019,2470.39,2021-7-28T16:32:18Z
2021-07-28T14:34:04Z,42.805,6.029,13.3014,4.60016,2470.343,2021-7-28T16:35:21Z
2021-07-28T14:37:07Z,42.805,6.029,13.3010,4.60014,2470.404,2021-7-28T16:38:24Z
2021-07-28T14:40:10Z,42.805,6.029,13.3009,4.60021,2470.366,2021-7-28T16:41:27Z
2021-07-28T14:43:14Z,42.805,6.029,13.3015,4.60013,2470.366,2021-7-28T16:44:31Z
2021-07-28T14:46:17Z,42.805,6.029,13.3015,4.60017,2470.366,2021-7-28T16:47:34Z
2021-07-28T14:49:20Z,42.805,6.029,13.3007,4.60026,2470.334,2021-7-28T16:50:37Z
2021-07-28T14:52:23Z,42.805,6.029,13.3016,4.60016,2470.38,2021-7-28T16:53:40Z
2021-07-28T14:55:26Z,42.805,6.029,13.3020,4.60021,2470.357,2021-7-28T16:56:43Z
2021-07-28T14:58:29Z,42.805,6.029,13.3016,4.60020,2470.38,2021-7-28T16:59:46Z
2021-07-28T15:01:32Z,42.805,6.029,13.3003,4.60021,2470.404,2021-7-28T17:02:49Z
2021-07-28T15:04:35Z,42.805,6.029,13.3019,4.60021,2470.343,2021-7-28T17:05:53Z
2021-07-28T15:07:39Z,42.805,6.029,13.3009,4.60022,2470.357,2021-7-28T17:08:56Z
2021-07-28T15:10:42Z,42.805,6.029,13.3012,4.60018,2470.357,2021-7-28T17:11:59Z
2021-07-28T15:13:45Z,42.805,6.029,13.3011,4.60016,2470.38,2021-7-28T17:15:02Z